sat.trackr.live / text

‹ back to catalog

UNKNOWN

NORAD 87782

UNKNOWN UNKNOWN UNKNOWN

§ Identity

Operator
Country
Launch date
Launch site
Launch vehicle
Mass (kg)
RCS (m²)

External: N2YO · Heavens-Above

§ Orbital elements

Epoch: 2026-05-23T22:55:57.435168Z

Period
110.65 min
Inclination
102.3941°
Eccentricity
0.0036832
Mean motion
13.01362827 rev/d
Perigee alt
1,228.6 km
Apogee alt
1,284.9 km
Semi-major
7,634.9 km
B*
7.5499e-3
RAAN
42.4725°
Arg perigee
276.3057°
Mean anomaly
83.3845°
Rev number
58,908

§ Raw data

UNKNOWN1 87782U          26143.95552587  .00002270  00000+0  75499-2 0  99902 87782 102.3941  42.4725 0036832 276.3057  83.3845 13.01362827589084

JSON: /api/v1/satellites/87782 · /tle

For live sub-satellite position, see the globe view (requires WebGL).

§ Visibility from observer

Set your observer location to see the next 7 days of passes ≥ 10°. The values pass through the URL so the page stays shareable.

No JS? Fill the form by hand. The geolocation button needs JavaScript.